• In Russia
  • List of Countries
  • For 7 days
  • Water Temperature
  • Satellite Maps
  • Weather Map
  • Weather Widgets
  • user-avatar
    Login

    Hourly Weather Ust-Kyahta

    Today, 15 November, Thursday

    Time Temperature Precipitation Wind Pressure Humidity
    00:00 -12°C° 0 mm 1 mps 722 mmHg 64%
    01:00 -13°C° 0 mm 1 mps 722 mmHg 65%
    02:00 -13°C° 0 mm 1 mps 722 mmHg 65%
    03:00 -13°C° 0 mm 1 mps 721 mmHg 66%
    04:00 -15°C° 0 mm 2 mps 721 mmHg 67%
    05:00 -15°C° 0 mm 2 mps 721 mmHg 68%
    06:00 -15°C° 0 mm 2 mps 721 mmHg 68%
    07:00 -15°C° 0 mm 2 mps 721 mmHg 71%
    08:00 -14°C° 0 mm 2 mps 721 mmHg 65%
    09:00 -13°C° 0 mm 2 mps 720 mmHg 59%
    10:00 -10°C° 0 mm 2 mps 720 mmHg 53%
    11:00 -10°C° 0 mm 3 mps 720 mmHg 50%
    12:00 -9°C° 0 mm 3 mps 719 mmHg 47%
    13:00 -8°C° 0 mm 3 mps 719 mmHg 45%
    14:00 -9°C° 0 mm 3 mps 719 mmHg 48%
    15:00 -9°C° 0 mm 3 mps 718 mmHg 52%
    16:00 -10°C° 0 mm 3 mps 718 mmHg 56%
    17:00 -12°C° 0 mm 3 mps 718 mmHg 57%
    18:00 -12°C° 0 mm 3 mps 717 mmHg 58%
    19:00 -12°C° 0 mm 3 mps 717 mmHg 57%
    20:00 -13°C° 0 mm 3 mps 716 mmHg 58%
    21:00 -13°C° 0 mm 3 mps 716 mmHg 60%
    22:00 -13°C° 0 mm 3 mps 715 mmHg 61%
    23:00 -12°C° 0 mm 2 mps 715 mmHg 62%

    Tomorrow, 16 November, Friday

    Time Temperature Precipitation Wind Pressure Humidity
    00:00 -12°C° 0 mm 2 mps 715 mmHg 63%
    01:00 -12°C° 0 mm 2 mps 715 mmHg 65%
    02:00 -12°C° 0 mm 2 mps 714 mmHg 65%
    03:00 -10°C° 0 mm 1 mps 714 mmHg 65%
    04:00 -10°C° 0 mm 1 mps 714 mmHg 66%
    05:00 -10°C° 0 mm 1 mps 714 mmHg 66%
    06:00 -10°C° 0 mm 1 mps 714 mmHg 66%
    07:00 -10°C° 0 mm 1 mps 715 mmHg 66%
    08:00 -9°C° 0 mm 1 mps 715 mmHg 62%
    09:00 -7°C° 0 mm 1 mps 714 mmHg 58%
    10:00 -7°C° 0 mm 2 mps 714 mmHg 55%
    11:00 -6°C° 0 mm 2 mps 714 mmHg 53%
    12:00 -6°C° 0 mm 2 mps 713 mmHg 51%
    13:00 -5°C° 0 mm 2 mps 713 mmHg 49%
    14:00 -5°C° 0 mm 2 mps 713 mmHg 54%
    15:00 -6°C° 0 mm 2 mps 712 mmHg 58%
    16:00 -7°C° 0 mm 2 mps 712 mmHg 62%
    17:00 -7°C° 0 mm 1 mps 712 mmHg 63%
    18:00 -7°C° 0 mm 1 mps 712 mmHg 64%
    19:00 -8°C° 0 mm 1 mps 712 mmHg 66%
    20:00 -8°C° 0 mm 1 mps 712 mmHg 66%
    21:00 -8°C° 0 mm 1 mps 712 mmHg 66%
    22:00 -8°C° 0 mm 1 mps 712 mmHg 67%
    23:00 -8°C° 0 mm 1 mps 712 mmHg 68%

    Day after tomorrow, 17 November, Saturday

    Time Temperature Precipitation Wind Pressure Humidity
    00:00 -8°C° 0 mm 1 mps 712 mmHg 70%
    01:00 -8°C° 0 mm 1 mps 712 mmHg 71%
    02:00 -8°C° 0.1 mm 1 mps 713 mmHg 76%
    03:00 -8°C° 0.1 mm 1 mps 713 mmHg 80%
    04:00 -8°C° 0.1 mm 1 mps 713 mmHg 85%
    05:00 -9°C° 0.1 mm 2 mps 714 mmHg 86%
    06:00 -9°C° 0.1 mm 2 mps 714 mmHg 88%
    07:00 -9°C° 0.1 mm 2 mps 715 mmHg 90%
    08:00 -10°C° 0.1 mm 3 mps 716 mmHg 83%
    09:00 -11°C° 0.1 mm 4 mps 716 mmHg 75%
    10:00 -12°C° 0.1 mm 5 mps 717 mmHg 68%
    11:00 -12°C° 0.1 mm 5 mps 717 mmHg 66%
    12:00 -11°C° 0.1 mm 4 mps 717 mmHg 63%
    13:00 -11°C° 0.1 mm 4 mps 717 mmHg 61%
    14:00 -12°C° 0 mm 4 mps 717 mmHg 63%
    15:00 -12°C° 0 mm 3 mps 717 mmHg 66%
    16:00 -13°C° 0 mm 3 mps 717 mmHg 69%
    17:00 -13°C° 0 mm 2 mps 717 mmHg 71%
    18:00 -13°C° 0 mm 2 mps 717 mmHg 73%
    19:00 -14°C° 0 mm 2 mps 717 mmHg 76%
    20:00 -12°C° 0 mm 1 mps 717 mmHg 77%
    21:00 -13°C° 0 mm 1 mps 717 mmHg 78%
    22:00 -13°C° 0 mm 1 mps 717 mmHg 79%
    23:00 -13°C° 0 mm 1 mps 717 mmHg 80%

    18 November, Sunday

    Time Temperature Precipitation Wind Pressure Humidity
    00:00 -14°C° 0 mm 1 mps 717 mmHg 81%
    01:00 -14°C° 0 mm 1 mps 717 mmHg 82%
    02:00 -14°C° 0 mm 1 mps 716 mmHg 83%
    03:00 -14°C° 0 mm 1 mps 716 mmHg 84%
    04:00 -15°C° 0 mm 1 mps 716 mmHg 85%
    05:00 -15°C° 0 mm 0 mps 715 mmHg 85%
    06:00 -15°C° 0 mm 0 mps 715 mmHg 85%
    07:00 -15°C° 0 mm 0 mps 715 mmHg 86%
    08:00 -14°C° 0 mm 0 mps 715 mmHg 80%
    09:00 -13°C° 0 mm 0 mps 715 mmHg 75%
    10:00 -12°C° 0 mm 0 mps 715 mmHg 69%
    11:00 -12°C° 0 mm 0 mps 714 mmHg 66%
    12:00 -11°C° 0 mm 0 mps 714 mmHg 63%
    13:00 -10°C° 0 mm 1 mps 714 mmHg 60%
    14:00 -11°C° 0 mm 1 mps 713 mmHg 65%
    15:00 -12°C° 0 mm 1 mps 713 mmHg 70%
    16:00 -13°C° 0 mm 1 mps 713 mmHg 75%
    17:00 -13°C° 0 mm 0 mps 713 mmHg 77%
    18:00 -14°C° 0 mm 0 mps 713 mmHg 79%
    19:00 -14°C° 0 mm 0 mps 714 mmHg 81%
    20:00 -14°C° 0 mm 0 mps 714 mmHg 81%
    21:00 -14°C° 0 mm 0 mps 714 mmHg 81%
    22:00 -15°C° 0 mm 0 mps 714 mmHg 82%
    23:00 -15°C° 0 mm 0 mps 714 mmHg 82%

    19 November, Monday

    Time Temperature Precipitation Wind Pressure Humidity
    00:00 -15°C° 0 mm 0 mps 714 mmHg 82%
    01:00 -15°C° 0 mm 0 mps 714 mmHg 82%
    02:00 -15°C° 0 mm 0 mps 714 mmHg 82%
    03:00 -15°C° 0 mm 0 mps 714 mmHg 82%
    04:00 -16°C° 0 mm 0 mps 715 mmHg 82%
    05:00 -16°C° 0 mm 0 mps 715 mmHg 82%
    06:00 -16°C° 0 mm 0 mps 715 mmHg 82%
    07:00 -16°C° 0 mm 0 mps 715 mmHg 82%
    08:00 -15°C° 0 mm 1 mps 716 mmHg 76%
    09:00 -13°C° 0 mm 1 mps 716 mmHg 70%
    10:00 -12°C° 0 mm 1 mps 716 mmHg 65%
    11:00 -11°C° 0 mm 1 mps 716 mmHg 61%
    12:00 -10°C° 0 mm 1 mps 716 mmHg 58%
    13:00 -9°C° 0 mm 1 mps 716 mmHg 55%
    14:00 -10°C° 0 mm 1 mps 716 mmHg 60%
    15:00 -11°C° 0 mm 1 mps 716 mmHg 65%
    16:00 -12°C° 0 mm 1 mps 716 mmHg 71%
    17:00 -13°C° 0 mm 1 mps 716 mmHg 72%
    18:00 -13°C° 0 mm 1 mps 717 mmHg 74%
    19:00 -13°C° 0 mm 1 mps 717 mmHg 76%
    20:00 -14°C° 0 mm 1 mps 717 mmHg 76%
    21:00 -14°C° 0 mm 1 mps 717 mmHg 77%
    22:00 -16°C° 0 mm 2 mps 717 mmHg 77%
    23:00 -16°C° 0 mm 2 mps 717 mmHg 77%

    20 November, Tuesday

    Time Temperature Precipitation Wind Pressure Humidity
    00:00 -14°C° 0 mm 1 mps 717 mmHg 77%
    01:00 -14°C° 0 mm 1 mps 716 mmHg 77%
    02:00 -16°C° 0 mm 2 mps 716 mmHg 77%
    03:00 -17°C° 0 mm 2 mps 716 mmHg 77%
    04:00 -17°C° 0 mm 2 mps 716 mmHg 77%
    05:00 -17°C° 0 mm 2 mps 716 mmHg 78%
    06:00 -17°C° 0 mm 2 mps 715 mmHg 78%
    07:00 -17°C° 0 mm 2 mps 715 mmHg 79%
    08:00 -16°C° 0 mm 2 mps 715 mmHg 74%
    09:00 -14°C° 0 mm 2 mps 715 mmHg 69%
    10:00 -13°C° 0 mm 2 mps 715 mmHg 64%
    11:00 -12°C° 0 mm 2 mps 714 mmHg 62%
    12:00 -12°C° 0 mm 3 mps 713 mmHg 59%
    13:00 -10°C° 0 mm 3 mps 712 mmHg 57%
    14:00 -10°C° 0 mm 2 mps 712 mmHg 61%
    15:00 -12°C° 0 mm 2 mps 712 mmHg 66%
    16:00 -12°C° 0 mm 2 mps 711 mmHg 71%
    17:00 -13°C° 0 mm 2 mps 711 mmHg 71%
    18:00 -13°C° 0 mm 2 mps 711 mmHg 72%
    19:00 -13°C° 0 mm 2 mps 711 mmHg 72%
    20:00 -14°C° 0 mm 2 mps 711 mmHg 72%
    21:00 -14°C° 0 mm 2 mps 710 mmHg 73%
    22:00 -14°C° 0 mm 2 mps 710 mmHg 73%
    23:00 -14°C° 0 mm 2 mps 710 mmHg 73%
    Show more